Regional Weather Roundup
Issued by NWS Little Rock, AR

Home | Current Version | Previous Version | Text Only | Print | Product List | Glossary Off
Versions: 1 2 3 4 5 6 7 8 9 10 11 12 13 14 15 16 17 18 19 20 21 22 23 24 25 26 27 28 29 30 31 32 33 34 35 36 37 38 39 40 41 42 43 44 45 46 47 48 49 50

832
ASUS44 KLZK 060205
RWRLZK

WEATHER ROUNDUP FOR ARKANSAS
NATIONAL WEATHER SERVICE LITTLE ROCK AR
900 PM CDT THU MAY 05 2016

NOTE: "FAIR" INDICATES FEW OR NO CLOUDS BELOW 12,000 FEET WITH NO
SIGNIFICANT WEATHER AND/OR OBSTRUCTIONS TO VISIBILITY.

ARZ001-003-010-029-060300-
NORTHWEST ARKANSAS

CITY           SKY/WX    TMP DP  RH WIND       PRES   REMARKS
FAYETTEVILLE   CLEAR     55  47  74 CALM      30.03R
FORT SMITH     CLEAR     69  44  40 NW6       29.99R
HARRISON       CLEAR     59  35  40 N3        30.03R
BENTONVILLE    CLEAR     63  39  42 CALM      30.04R
ROGERS         CLEAR     61  42  49 N5        30.04R
SILOAM SPGS    CLEAR     63  41  45 CALM      30.04R
HIGHFILL       CLEAR     59  45  59 CALM      30.03R
SPRINGDALE     CLEAR     63  39  42 N7        30.04R
$$

ARZ004-005-016-060300-
NORTH CENTRAL ARKANSAS

CITY           SKY/WX    TMP DP  RH WIND       PRES   REMARKS
BATESVILLE     PTCLDY    61  36  39 N3        29.99R
FLIPPIN        CLEAR    N/A N/A N/A N5        29.99R
MTN HOME       CLEAR     57  33  40 CALM      30.00R
$$

ARZ040-041-060300-
WEST CENTRAL ARKANSAS

CITY           SKY/WX    TMP DP  RH WIND       PRES   REMARKS
MENA           CLEAR     61  50  67 CALM      30.01R
MOUNT IDA      CLEAR     60  49  66 CALM      29.96S
$$

ARZ009-017-025-026-028-060300-
NORTHEAST ARKANSAS

CITY           SKY/WX    TMP DP  RH WIND       PRES   REMARKS
CORNING          N/A     61  46  59 E13       30.01R
JONESBORO      CLEAR     61  45  55 NE14      29.99R
NEWPORT        CLEAR     62  43  49 NE8       29.99R
WALNUT RIDGE   CLEAR     63  43  48 NE13      29.99R
BLYTHEVILLE    CLEAR     59  44  57 NE12      30.01R
$$

ARZ022-023-033-042-044-060300-
CENTRAL ARKANSAS

CITY           SKY/WX    TMP DP  RH WIND       PRES   REMARKS
LITTLE ROCK    CLEAR     67  39  35 NE7       29.97R
N LITTLE ROCK    N/A     63  39  40 N3        29.97R
SEARCY         CLEAR     64  36  35 N5        29.99R
HOT SPRINGS    CLEAR     64  48  56 CALM      29.97R
RUSSELLVILLE   CLEAR     67  40  37 N6        29.97R
CLINTON        FAIR      55  46  71 CALM      30.00R
$$

ARZ036-060300-
EAST ARKANSAS

CITY           SKY/WX    TMP DP  RH WIND       PRES   REMARKS
WEST MEMPHIS   CLEAR     61  45  55 NE9       29.97R
$$

ARZ050-053-066-070-073-060300-
SOUTHWEST ARKANSAS

CITY           SKY/WX    TMP DP  RH WIND       PRES   REMARKS
ARKADELPHIA    FAIR      65  60  83 CALM      29.97R
CAMDEN         CLEAR     57  48  72 CALM      29.96S
TEXARKANA      PTCLDY    66  50  56 N5        29.98R
EL DORADO      CLEAR     60  51  72 CALM      29.98R
DE QUEEN       PTCLDY    63  53  70 CALM      29.97R
$$

ARZ056-057-069-060300-
SOUTHEAST ARKANSAS

CITY           SKY/WX    TMP DP  RH WIND       PRES   REMARKS
PINE BLUFF     CLEAR     63  49  60 N5        29.96R
STUTTGART      CLEAR     63  46  55 N7        29.97R
MONTICELLO     CLEAR     60  51  72 CALM      29.96R

$$






USA.gov is the U.S. government's official web portal to all federal, state and local government web resources and services.